Other Surface Observations
Issued by NWS

Home | Current Version | Previous Version | Text Only | Print | Product List | Glossary On
Versions: 1 2 3 4 5 6 7 8 9 10 11 12 13 14 15 16 17 18 19 20 21 22 23 24 25 26 27 28 29 30 31 32 33 34 35 36 37 38 39 40 41 42 43 44 45 46 47 48 49 50
000
SXUS52 KTAE 291706
OSOTAE
OSOTAE
North Florida/South Alabama/Southwest Georgia Weather Roundup
National Weather Service Tallahassee Florida
100 PM EDT FRI APR 29 2016

Note: "fair" indicates few or no clouds below 12,000 feet with no
significant weather and/or obstructions to visibility.

!FLZ017-115-028-034-025-291800
...North Florida...

CITY           SKY/WX    TMP DP  RH WIND       PRES   REMARKS
TALLAHASSEE    PTSUNNY   85  68  56 SW3       29.97F
APALACHICOLA   SUNNY     82  74  76 S10       29.98F
PERRY          PTSUNNY   87  67  52 NE5       29.99F HX  90
CROSS CITY       N/A     85  67  54 VRB3      29.97F
JACKSONVILLE   MOSUNNY   85  65  51 VRB5      29.97F
$$

!FLZ112-006-005-002-011-291800
...Florida Panhandle...

CITY           SKY/WX    TMP DP  RH WIND       PRES   REMARKS
MARIANNA       MOSUNNY   85  68  56 E5        29.97F
BONIFAY        NOT AVBL
PANAMA CITY NW FAIR      86  67  52 MISG      29.96F
TYNDALL AFB    SUNNY     82  71  69 S10       29.97F
TYND DRONE APT FAIR      82  72  72 S9        29.98S
DE FUNIAK SPR  FAIR      83  67  56 SE3       29.98F
EGLIN AFB      MOSUNNY   82  68  63 S8        29.98S
DESTIN         SUNNY     82  70  66 S6        29.98F
HURLBURT       SUNNY     81  65  58 S9        29.97F HAZE
CRESTVIEW      PTSUNNY   87  63  44 SE6       29.99S
PENSACOLA      SUNNY     82  64  54 S10       29.98F
$$

!ALZ063-066-291800
...South Alabama...

CITY           SKY/WX    TMP DP  RH WIND       PRES   REMARKS
DOTHAN         MOSUNNY   84  65  52 SE8       30.02F
OZARK CAIRNS   MOSUNNY   85  69  59 VRB6      29.98F
FT RUCKER HELI PTSUNNY   86  68  54 CALM      29.97
RUCKER HELI 3  FAIR      82  66  59 E3        30.00F
RUCKER HELI 2  NOT AVBL
FLORALA APT    MOSUNNY   84  67  56 E5        29.99F
ANDALUSIA      SUNNY     89  68  49 VRB3      29.98F HX  93
TROY           SUNNY     85  65  51 E7        29.99F
EUFALA         FAIR      87  66  49 VRB5      29.97F
MOBILE         PTSUNNY   83  67  58 SE12      29.98F
$$

!GAZ120>161-291800
...Southwest and South Central Georgia...

CITY           SKY/WX    TMP DP  RH WIND       PRES   REMARKS
THOMASVILLE    FAIR      82  70  65 S7        29.99F
BAINBRIDGE     SUNNY     82  70  65 E3        29.98F
MOODY AFB      MOSUNNY   86  63  45 VRB2      29.97F
VALDOSTA       PTSUNNY   84  68  58 CALM      29.98F
MOULTRIE       MOSUNNY   86  64  48 SE5       29.99F
BLAKELY        MOSUNNY   88  68  51 CALM      29.99F HX  91
ALBANY         SUNNY     86  64  47 CALM      30.00F
TIFTON         FAIR      85  63  47 SE6       29.98F
FITZGERALD     FAIR      86  59  39 CALM      30.01S
CORDELE        FAIR      88  58  36 SE5       30.00F
AMERICUS       FAIR      84  55  37 CALM      30.01F
HOMERVILLE     FAIR      86  68  54 SE5       29.98F
$$

!GMZ750-755-770-775-291800
...Coastal and Buoy Obs...

STATION/POSITION TIME  TEMP    WIND        PRES    VSBY  WAVE
                       AIR SEA DIR/SP/G                  HT/PER
                 (UTC) (F)     (DEG/KT/KT) (MB)    (MI)  (FT/S)
KEATON BEACH     1700   77     240/  8/  9 1014.9F
CEDAR KEY        1600   78     210/  5/  7 1016.3F
C TOWER          1700   73     160/  7/  7 1016.0F
APALACHICOLA BUO 1650   75 76  160/  6/  6 1015.5F         2/ 6
PANAMA CITY BUOY 1550   78 79  140/ 10/ 12 1015.7          2/ 6
MOBILE BUOY      1600   75 74  120/  8/ 10 1014.6F
ORANGE BCH AL BU 1650   74 74  130/  6/  8 1014.2F         3/ 6
$$




USA.gov is the U.S. government's official web portal to all federal, state and local government web resources and services.